sat.trackr.live / text

‹ back to catalog

STARLINK-36355

NORAD 68298 · 2026-057E

PAYLOAD ACTIVE UNKNOWN

§ Identity

Operator
Country
US
Launch date
2026-03-20
Launch site
AFWTR
Launch vehicle
Mass (kg)
RCS (m²)

Purposes: comms

External: N2YO · Heavens-Above · Gunter

§ Orbital elements

Epoch: 2026-09-20T04:38:44.531808Z

Period
93.91 min
Inclination
97.2880°
Eccentricity
0.0000357
Mean motion
15.33454863 rev/d
Perigee alt
465.3 km
Apogee alt
465.8 km
Semi-major
6,843.7 km
B*
5.0596e-4
RAAN
28.5486°
Arg perigee
131.5023°
Mean anomaly
228.6250°
Rev number
2,846

§ Raw data

STARLINK-363551 68298U 26057E   26263.19357097  .00016299  00000+0  50596-3 0  99972 68298  97.2880  28.5486 0000357 131.5023 228.6250 15.33454863 28469

JSON: /api/v1/satellites/68298 · /tle

For live sub-satellite position, see the globe view (requires WebGL).

§ Visibility from observer

Set your observer location to see the next 7 days of passes ≥ 10°. The values pass through the URL so the page stays shareable.

No JS? Fill the form by hand. The geolocation button needs JavaScript.